#timestamp,LO_Frequency,Hit 
1503417615.4,286047007.9,P
1503417635.2,286047009.9,N
1503417655.1,286047014.4,N
1503417656.0,286047014.4,P
1503417675.8,286047010.8,P
1503417695.6,286047013.0,P
1503417715.5,286047014.1,P
1503417735.3,286046998.2,P
1503417755.2,286047002.7,N
1503417775.9,286047002.5,N
1503417795.7,286046998.8,N
1503417815.5,286046999.1,N
1503417835.4,286046998.6,N
1503417855.2,286046996.6,N
1503417875.0,286046999.2,N
1503417875.9,286046999.2,N
1503417895.8,286046995.0,N
1503417915.6,286046998.6,N
1503417935.4,286046993.5,N
1503417955.3,286046993.6,N
1503417975.1,286046990.3,N
1503417976.0,286046990.3,N
1503417995.8,286046987.8,N
1503418015.7,286046989.3,N
1503418035.5,286046992.6,N
1503418055.3,286046991.0,N
1503418075.2,286046984.8,N
1503418095.9,286046981.8,N
1503418115.7,286046978.9,N
1503418135.5,286046980.1,N
1503418155.4,286046976.2,N
1503418175.2,286046970.1,P
1503418195.1,286046970.9,N
1503418196.0,286046970.9,N
1503418215.8,286046975.5,N
1503418235.6,286046971.1,P
1503418255.5,286046996.4,N
1503418275.3,286046992.7,N
1503418295.1,286046989.1,N
1503418315.9,286046994.5,N
1503418335.7,286046994.9,N
1503418355.5,286046997.8,N
1503418375.3,286046997.0,N
1503418395.2,286046997.7,N
1503418415.0,286046988.7,N
1503418415.9,286046988.7,N
1503418435.7,286046982.2,N
1503418455.6,286046980.9,N
1503418475.4,286046977.8,N
1503418495.2,286046983.5,N
1503418515.1,286046986.6,N
1503418516.0,286046986.6,N
1503418535.8,286046992.1,N
1503418555.6,286046994.2,N
1503418575.5,286046998.9,N
1503418595.3,286047000.2,N
1503418615.1,286047000.4,N
1503418635.9,286047007.1,N
1503418655.7,286047006.3,N
1503418675.5,286047001.8,N
1503418695.3,286047001.5,N
1503418715.2,286046998.7,N
1503418735.0,286046993.0,N
1503418735.9,286046993.0,N
1503418755.7,286046989.2,N
1503418775.6,286046991.6,N
1503418795.4,286046984.6,N
1503418815.2,286046984.0,N
1503418835.1,286046987.9,N
1503418836.0,286046987.9,N
1503418855.8,286046984.1,N
1503418875.6,286046986.2,N
1503418895.5,286046986.4,N
1503418915.3,286046989.5,N
1503418935.1,286046992.5,N
1503418955.9,286046997.2,N
1503418975.7,286046997.2,N
1503418995.5,286047000.1,N
1503419015.3,286047003.0,N
1503419035.2,286047003.2,N
1503419055.0,286046999.7,N
1503419055.9,286046999.7,N
1503419075.7,286047009.1,N
1503419095.6,286047023.8,P
1503419115.4,286047031.2,N
1503419135.3,286047028.9,N
1503419155.1,286047036.8,N
1503419156.0,286047036.8,N
1503419175.8,286047037.9,N
1503419195.6,286047033.7,N
1503419215.5,286047030.1,N
1503419235.3,286047029.8,N
1503419255.1,286047024.7,N
1503419275.9,286047027.8,N
1503419295.7,286047023.7,N
1503419315.5,286047017.6,N
1503419335.4,286047014.3,N
1503419355.2,286047016.0,N
1503419375.0,286047019.4,N
1503419375.9,286047019.4,N
1503419395.8,286047021.5,N
1503419415.6,286047018.1,N
1503419435.4,286047017.4,N
1503419455.3,286047023.5,N
1503419475.1,286047026.5,N
1503419476.0,286047026.5,N
1503419495.8,286047026.0,N
1503419515.6,286047025.2,N
1503419535.5,286047022.5,N
1503419555.3,286047023.9,N
1503419575.1,286047022.2,N
1503419595.9,286047024.5,N
1503419615.7,286047025.8,P
1503419635.5,286047001.4,N
1503419655.4,286047004.8,N
1503419675.2,286047005.0,N
1503419695.0,286047010.6,N
1503419695.9,286047010.6,N
1503419715.8,286047011.8,N
1503419735.6,286047011.0,N
1503419755.4,286047007.9,N
1503419775.3,286047004.3,N
1503419795.1,286046998.1,N
1503419796.0,286046998.1,N
1503419815.8,286046996.1,N
1503419835.7,286046990.8,N
1503419855.5,286046985.9,N
1503419875.3,286046984.9,N
1503419895.2,286046981.5,N
1503419915.9,286046978.1,N
1503419935.7,286046976.3,N
1503419955.5,286046981.2,N
1503419975.4,286046982.6,N
1503419995.2,286046985.3,N
1503420015.0,286046987.8,N
1503420015.9,286046987.8,N
1503420035.8,286046986.2,N
1503420055.6,286046982.2,N
1503420075.4,286046979.2,N
1503420095.3,286046976.4,N
1503420115.1,286046971.1,N
1503420116.0,286046971.1,N
1503420135.8,286046972.0,N
1503420155.7,286046969.8,N
1503420175.5,286046968.6,N
1503420195.3,286046969.2,N
1503420215.2,286046969.2,N
1503420235.9,286046971.6,N
1503420255.7,286046962.9,N
1503420275.6,286046967.4,N
1503420295.4,286046969.4,N
1503420315.2,286046971.8,N
1503420335.0,286046977.1,N
1503420335.9,286046977.1,N
1503420355.8,286046979.1,N
1503420375.6,286046978.9,N
1503420395.4,286046974.4,P
1503420415.3,286047000.2,N
1503420435.1,286047006.0,N
1503420455.8,286047005.7,N
1503420475.7,286046998.1,N
1503420495.5,286046994.2,N
1503420515.3,286046993.1,N
1503420535.2,286046987.2,N
1503420555.9,286046991.2,N
1503420575.7,286046994.0,N
1503420595.6,286046998.4,N
1503420615.4,286047008.8,N
1503420635.2,286047019.2,N
1503420655.1,286047023.9,N
1503420656.0,286047023.9,N
1503420675.8,286047024.0,N
1503420695.6,286047024.5,N
1503420715.4,286047021.0,N
1503420735.3,286047019.5,N
1503420755.1,286047015.1,N
1503420775.8,286047013.7,N
1503420795.7,286047017.1,N
1503420815.5,286047019.9,N
1503420835.3,286047018.9,N
1503420855.2,286047022.5,N
1503420875.9,286047021.6,N
1503420895.7,286047018.5,N
1503420915.6,286047018.7,N
1503420935.4,286047015.7,N
1503420955.2,286047014.2,N
1503420975.1,286047015.1,N
1503420976.0,286047015.1,N
1503420995.8,286047017.6,N
1503421015.6,286047025.2,N
1503421035.4,286047020.6,N
1503421055.3,286047020.9,N
1503421075.1,286047022.1,N
1503421095.8,286047024.7,N
1503421115.7,286047029.6,P
1503421135.5,286047011.7,N
1503421155.3,286047004.7,N
1503421175.2,286047009.2,N
1503421195.0,286047009.3,N
1503421195.9,286047009.3,N
